Location: Arrodets-la-Barthe
(43.0306°N, 0.2829°E)
Time: 18:44:45
(UTC+00:00)

USA 229 - Visible Passes

Search period start: 25 May 2022 00:00
Search period end: 04 June 2022 00:00
Orbit: 938 x 1274 km, 63.4° (Epoch: 22 May)

Date Brightness Start Highest point End Pass type
(mag) Time Alt. Az. Time Alt. Az. Time Alt. Az.
25 May 4.2 01:49:01 10° NW 01:56:07 48° WSW 01:59:58 28° S visible
25 May 6.2 21:22:32 10° NNW 21:26:30 15° NNE 21:30:37 10° NE visible
25 May 5.2 23:13:19 10° NNW 23:19:51 34° NE 23:26:46 10° ESE visible
26 May 3.9 01:04:01 10° NW 01:11:25 71° WSW 01:15:14 33° SSE visible
26 May 5.4 02:57:34 10° WNW 03:01:19 14° WSW 03:02:35 14° WSW visible
26 May 6.2 20:37:18 10° NNW 20:40:46 14° N 20:44:22 10° NE visible
26 May 5.6 22:28:38 10° NNW 22:34:32 26° NNE 22:40:45 10° E visible
27 May 3.9 00:19:08 10° NW 00:26:35 81° NE 00:30:47 31° SE visible
27 May 5.0 02:11:12 10° WNW 02:16:56 24° WSW 02:18:09 23° WSW visible
27 May 5.9 21:43:54 10° NNW 21:49:04 20° NNE 21:54:28 10° ENE visible
27 May 4.4 23:34:23 10° NNW 23:41:38 57° NE 23:46:32 24° ESE visible
28 May 4.5 01:25:42 10° NW 01:32:27 37° WSW 01:33:55 34° SW visible
28 May 6.1 20:59:04 10° NNW 21:03:28 17° NNE 21:08:02 10° NE visible
28 May 4.9 22:49:41 10° NNW 22:56:33 41° NE 23:02:26 16° ESE visible
29 May 4.1 00:40:33 10° NW 00:47:49 56° WSW 00:49:49 45° SSW visible
29 May 6.1 20:14:02 10° NNW 20:17:46 15° N 20:21:38 10° NE visible
29 May 5.3 22:05:01 10° NNW 22:11:18 31° NE 22:17:57 10° E visible
29 May 3.8 23:55:37 10° NW 00:03:03 82° WSW 00:05:50 45° SSE visible
30 May 5.3 01:48:25 10° WNW 01:53:09 18° WSW 01:53:13 18° WSW visible
30 May 5.6 21:20:18 10° NNW 21:25:55 23° NNE 21:31:49 10° E visible
30 May 4.1 23:10:48 10° NNW 23:18:10 71° NE 23:21:55 34° SE visible
31 May 4.8 01:02:30 10° NW 01:08:43 29° WSW 01:09:20 28° WSW visible
31 May 5.9 20:35:33 10° NNW 20:40:24 19° NNE 20:45:27 10° ENE visible
31 May 4.5 22:26:04 10° NNW 22:33:10 50° NE 22:38:06 22° ESE visible
01 Jun 4.3 00:17:10 10° NW 00:24:10 44° WSW 00:25:31 41° SW visible
01 Jun 5.0 21:41:22 10° NNW 21:48:01 36° NE 21:54:20 13° ESE visible
01 Jun 4.0 23:32:07 10° NW 23:39:29 66° WSW 23:41:45 47° S visible
02 Jun 5.7 01:26:12 10° W 01:29:10 13° WSW 01:29:10 13° WSW visible
02 Jun 5.4 20:56:41 10° NNW 21:02:44 27° NNE 21:09:06 10° E visible
02 Jun 3.9 22:47:14 10° NW 22:54:41 86° ENE 22:58:03 38° SE visible
03 Jun 5.2 00:39:30 10° WNW 00:44:57 22° WSW 00:45:28 22° WSW visible
03 Jun 5.7 20:11:58 10° NNW 20:17:17 21° NNE 20:22:51 10° ENE visible
03 Jun 4.2 22:02:28 10° NNW 22:09:45 61° NE 22:14:25 26° ESE visible
